Location: The Saddle
(36.8333°N, 80.3417°W)
Time: 01:14:14
(UTC-04:00)

ISS - Visible Passes

Search period start: 17 April 2024 00:00
Search period end: 27 April 2024 00:00
Orbit: 412 x 419 km, 51.6° (Epoch: 17 April)

Date Brightness Start Highest point End Pass type
(mag) Time Alt. Az. Time Alt. Az. Time Alt. Az.
18 Apr -1.5 05:44:31 10° S 05:47:02 20° SE 05:49:35 10° E visible
19 Apr -0.9 04:57:35 10° SE 04:58:31 11° SE 04:59:27 10° ESE visible
20 Apr -3.6 05:43:31 16° SW 05:46:05 67° SE 05:49:23 10° NE visible
21 Apr -2.6 04:56:52 31° SSE 04:57:22 33° SE 05:00:25 10° ENE visible
22 Apr -1.0 04:10:05 14° E 04:10:05 14° E 04:11:02 10° E visible
22 Apr -2.9 05:42:58 17° W 05:45:10 39° NW 05:48:20 10° NE visible
23 Apr -3.9 04:56:03 68° WNW 04:56:16 72° NW 04:59:35 10° NE visible
24 Apr -1.6 04:09:04 26° ENE 04:09:04 26° ENE 04:10:41 10° ENE visible
24 Apr -1.7 05:41:59 10° WNW 05:44:21 18° NNW 05:46:43 10° NNE visible
25 Apr -2.3 04:54:49 26° NW 04:55:14 26° NNW 04:58:07 10° NNE visible
26 Apr -1.6 04:07:38 26° NNE 04:07:38 26° NNE 04:09:22 10° NE visible
26 Apr -1.0 05:43:04 10° NNW 05:43:34 10° NNW 05:44:04 10° N visible
